Flag for United Kingdom Weather past 2 weeks in Belfast, Northern Ireland, United Kingdom

39 °F

Passing clouds.

Feels Like: 36 °F
Forecast: N/A
Wind: 5 mph from Northwest

Location: Belfast / Harbour

Current Time: Nov 30, 2015 at 5:52:21 PM

Latest Report: Nov 30, 2015 at 5:20 PM

Visibility: N/A

Pressure: 29.89 "Hg

Humidity: 75%

Dew point: 32 °F

Location of BelfastLocation

Historic Weather in Belfast — Graph


Belfast temperature yesterday

Maximum temperature yesterday: 50 °F (at 9:20 AM)
Minimum temperature yesterday: 37 °F (at 10:20 PM)
Average temperature yesterday: 44 °F

Past Weeks' High & Low Weather Summary

High59 °F (Nov 15, 4:20 PM)88% (Nov 17, 3:50 PM)30.24 "Hg (Nov 17, 3:50 PM)
Low32 °F (Nov 22, 9:20 PM)48% (Nov 29, 9:20 PM)29.06 "Hg (Nov 17, 2:50 PM)
Average45 °F70%29.72 "Hg
* Reported Nov 15 4:20 PM — Nov 30 4:20 PM, Belfast, Weather by CustomWeather, © 2015

Note: Actual official high and low records may vary slightly from our data, if they occured in-between our weather recording intervals... More about our weather records


Belfast weather history for previous 24 hours

Time TempWeatherWind HumidityBarometerVisibility
4:20 PM
Mon, Nov 30
39 °FPassing clouds.10 mph75%29.86 "HgN/A
3:50 PM39 °FPassing clouds.12 mph75%29.83 "HgN/A
3:20 PM39 °FPassing clouds.12 mph75%29.80 "HgN/A
2:50 PM39 °FPassing clouds.10 mph70%29.80 "HgN/A
2:20 PM39 °FPassing clouds.2 mph70%29.77 "HgN/A
1:50 PM39 °FScattered clouds.2 mph75%29.74 "HgN/A
1:20 PM39 °FScattered clouds.5 mph75%29.74 "HgN/A
12:50 PM39 °FScattered clouds.8 mph75%29.71 "HgN/A
12:20 PM39 °FBroken clouds.10 mph75%29.68 "HgN/A
11:50 AM39 °FLight rain. Broken clouds.10 mph75%29.68 "HgN/A
11:20 AM39 °FLight rain. Broken clouds.13 mph75%29.65 "HgN/A
10:50 AM37 °FLight rain. Broken clouds.13 mph81%29.65 "HgN/A
10:20 AM37 °FLight rain. Broken clouds.13 mph81%29.65 "Hg4 mi
9:50 AM37 °FLight rain. Broken clouds.13 mph81%29.65 "Hg4 mi
9:20 AM37 °FLight rain. Partly sunny.10 mph81%29.65 "Hg4 mi
8:50 AM37 °FLight rain. Partly sunny.8 mph81%29.65 "HgN/A
8:20 AM37 °FLight rain. Broken clouds.2 mph81%29.68 "HgN/A
7:50 AM39 °FLight rain. Partly cloudy.3 mph75%29.71 "HgN/A
7:20 AM39 °FLight rain. Partly cloudy.6 mph75%29.71 "HgN/A
6:50 AM39 °FLight rain. Partly cloudy.7 mph75%29.74 "HgN/A
6:20 AM39 °FLight rain. Partly cloudy.9 mph75%29.74 "HgN/A
10:50 PM
Sun, Nov 29
37 °FClear.12 mph60%29.80 "Hg10 mi
10:20 PM37 °FClear.14 mph56%29.80 "Hg10 mi
9:50 PM39 °FClear.14 mph52%29.80 "Hg10 mi
9:20 PM39 °FClear.15 mph48%29.77 "Hg10 mi
8:50 PM39 °FClear.15 mph52%29.77 "Hg10 mi
8:20 PM39 °FPassing clouds.17 mph56%29.77 "HgN/A
7:50 PM39 °FPassing clouds.20 mph61%29.74 "HgN/A
7:20 PM39 °FPassing clouds.20 mph61%29.74 "HgN/A
6:50 PM39 °FPassing clouds.23 mph65%29.71 "HgN/A
6:20 PM41 °FSprinkles. Passing clouds.20 mph57%29.68 "HgN/A
5:50 PM41 °FSprinkles. Passing clouds.24 mph57%29.65 "HgN/A
5:20 PM39 °FSprinkles. Passing clouds.24 mph70%29.62 "Hg2 mi
Weather by CustomWeather, © 2015

See weather overviewHow to use our weather pages